{"data":{"norad_id":61682,"intl_designator":"2024-193X","name":"STARLINK-32429","alt_names":[],"object_type":"PAYLOAD","status":"ACTIVE","operator":null,"country":"US","launch_date":"2024-10-26","launch_site_code":"AFETR","launch_vehicle":null,"mission":null,"orbit_class":"UNKNOWN","rcs_meters":null,"size_class":null,"mass_kg":null,"dimensions":null,"purposes":["comms"],"wikipedia_slug":null,"has_3d_model":false,"image_url":null,"decayed_at":null,"tle_current":{"epoch":"2026-09-20T23:41:59.276832Z","epoch_age_seconds":146395,"freshness":"FRESH","line1":"1 61682U 24193X   26263.98749163  .00002978  00000+0  10762-3 0  9992","line2":"2 61682  53.1573 262.7223 0001635  78.7928 281.3257 15.31722161106441","mean_motion":15.31722161,"eccentricity":0.0001635,"inclination_deg":53.1573,"raan_deg":262.7223,"arg_perigee_deg":78.7928,"mean_anomaly_deg":281.3257,"bstar":0.00010762,"rev_number":10644,"period_min":94.011827775599,"perigee_km":469.55415464638,"apogee_km":471.7937158222,"semimajor_km":6848.8109352343,"source":"CELESTRAK","updated_at":"2026-09-22T09:00:49.405656Z"}}}